[Date Prev][Date Next][Thread Prev][Thread Next][Date Index][Thread Index]

[jamsat-news:1240] jas2info #177



========================   ºÇ¿·¾ðÊó   ==============================

        Last updated ¡§Thu.16-Mar.-2000 15:40 (JST) #177

====================================================================
   
  £±¡Ë¥¢¥Þ¥Á¥å¥¢ÄÌ¿®±ÒÀ±¾ðÊ󡡣ƣϥ·¥ê¡¼¥º¤Îµ°Æ»Í×ÁÇ¡¢¥Æ¥ì¥á¥È¥ê¡¢
¡¡¡¡¡¡£Ñ£Ó£Ï¤Î¾õ¶·Åù¤ò¤Þ¤È¤á¤Æ¤ß¤Þ¤·¤¿¡¥
¡¡¡¡¡¡
¡¡¡¡¡¡£Æ£Ï¡Ý£²£¹¤Î£³·î£±£¶Æü¡ÊÌڡˤΥƥì¥á¥È¥ê¤Ï£Ê£Á£Ò£Ì¤Î¥Û¡¼¥à¥Ú¡¼¥¸¤Î
¡¡¡¡±¿ÍÑͽÄê¤Î¤È¤¦¤ê£±£²¡§£³£±¡Ê£Ê£Ó£Ô¡Ë¤Î¥Ñ¥¹¤Ç¤Ï¥¢¥Ê¥í¥°·Ï±¿ÍѤˤʤäÆ
¡¡¡¡¤ª¤ê¤Þ¤·¤¿.£Ã£×¿®¹æ¤Ç£±£²¡§£³£²¡Á£±£²¡§£´£¸¡Ê£Ê£Ó£Ô¡Ë¤Ë¼õ¿®¤Ç¤­¤Þ¤·¤¿.
¡¡¡¡¸½ºß¤Þ¤Ç¡¢Åö¶É¤Ç¼èÆÀ¤·¤¿¥Ç¡¼¥¿¤Î£±Éô¤ò·ÇºÜ¤·¤Æ¤ª¤­¤Þ¤¹.
    
¡¡AS17671C1   16Mar2000
¡¡12:32 - 12:48(JST)
¡¡Freq. 435.804-.787 MHz
                           0D 00 2E 74 7A 92 60 92 9A AF 90 BB BB BD BB BB 
¡¡HI HI AE C7 88 55 14 2C 0A 0D 00 2E 49 67 96 60 94 91 B0 89 BB BB BD BB BB 
¡¡HI HI AE C7 88 55 19 2C FF 0D 00 2E 70 3A 95 60 93 90 B0 90 BB BA BD BB BB 
¡¡HI HI AE C7 88 55 1E 2C FF 25 00 2E 8C 6F 92 60 92 90 9F 7C BB BA BD BB BB 
¡¡HI HI AE C7 88 55 03 2C 0A 0D 00 2E 53 54  8 60 95 94 B0 86 BB BA BD BB BB 
¡¡HI HI AE C7 88 55 08 2C FF 0D 00 2E 79 3A 93 3F 95 92 B0 7E BB BA BC BB BB 
¡¡HI HI AE C7 88 55 0D 2C FF 0D 00 2E 84 60 8B 43 94 92 B0 7D BB BA BC BB BB 
¡¡HI HI AE C7 88 55 12 2C FF 0D 00 2E 63 47 93 3D 95 92 B0 95 BB B9 BC BB BB 
¡¡HI HI AE C7 88 55 17 2C FF 0D 00 2E 7E 40 8E 60 94 92 B0 81 BB B9 BC BB BB 
¡¡HI HI AE C7 88 55 1C 2C 0A 0D 00 2E 79 4D 88 60 92 90 9F 6B BA B9 BC BB BB 
¡¡HI HI AE C7 88 55 01 2C FF 0D 00 2E 77 3D 96 5F 92 90 B0 8A BA B9 BC BB BB 
¡¡HI HI AE 07 88 55 06 2C FF 0D 00 2E 81 4B 8F 60 93 90 B0 90 BA B9 BB BB BB 
¡¡HI HI AE C7 88 55 0C 2C FF 0D 00 2E 6C 39 84 61 94 92 B0 7D BA B8 BB BB BB 
¡¡HI HI AE C7 88 55 11 2C FF 0D 00 2E 8C 3C 91 60 92 90 B0 81 BA B8 BB BB BB 
¡¡HI HI AE C7 88 55 16 2C FF 0D 00 2E 79 57 87 60 93 91 B0 6D BA B8 BB BB BB 
¡¡HI HI AE C7 88 55 1B 2C FF 0D 00 2E 61 26 7D 60 92 90 B0 7B BA B7 BB BA BB 
¡¡HI HI AE C7 88 55 00 2C GF 0D 00 2E A1 47 8E 60 93 90 B1 8C BA B7 BA BA BB 
¡¡HI HI AE C7 88 55 05 2C FF 25 00 2E 71 62 85 61 92 90 B0 7A BA B7 BA BA BB 
¡¡HI HI AE C7 88 55 0A 2C FF 0D 00 2E 56 1C 79 4A 96 92 B0 9E BA B7 BA BA BB 
¡¡HI HI AE C7 88 55 0F 2C FF 1A 00 2E AC 4E 8F 60 93 91 B0 9D BA B6 BA BA BB 
¡¡HI HI AE C7 88 55 14 2C FF 0D 00 2E 70 71 89 60 92 90 B0 6F B9 B6 BA BA BB 
¡¡HI HI AE C7 88 55 19 2C FF 0D 00 2E 48 1C 78 60 93 90 B1 97 BA B6 BA BA BB 
 
¡¡AS17657C  15Mar2000
¡¡11:44 - 11:57(JST)

¡¡HI HI AE C7 88 55    2C 0A 0D 00 2E 6F 51 8E 60 92 90 B0 79 BC B9 BB BB BB 
¡¡HI HI AE C7 88 55 18 2C 0A 0D 00 2E 57 42 84 60 92 92 A1 7D BC BA BB BB BB 
¡¡HI HI AE C7 88 55 1D 2C FF 1E 00 2E 55 53 83 60 92 92 A1 77 BC B9 BA BB BB 
¡¡HI HI AE C7 88 55 02 2C FF 0D 00 2E 5D 46 8C 60 92 90 A0 7B BC B9 BA BA BB 
¡¡HI HI AE C7 88 55 07 2C 05 0D 00 2E 55 4B 82 60 92 90 B0 84 BC B9 BA BA BB 
¡¡HI HI AE C7 88 55 0D 2C FF 0D 00 2E 5E 40    60 93 90 B0 81 BC B9 BA BA BB 
¡¡HI HI AE C7 88 55    2C FF 0D 00 2E 48 49 90 60 93 91 B0 8B BC B9 BA BA BB 
¡¡HI HI AE C7 88 55    2C FF 0D 00 2E 61 50 86 60 94 91 B0 94 BB B9 BA BA BB 
¡¡HI HI AE C7 88 55 1C 2C 0A 0D 00 2E 5D 2C 86 60 92 90 B0 7B BB B9 BA B9 BB 
¡¡HI HI AE C7 88 55 01 2C FF 0D 00 2E 38 5C 93 60 93 91 B0 8D BB B9 BA B9 BB 
¡¡HI HI AE C7 88 55 07 2C FF 0D 00 2E 76 48 8B 5F 92 90 B0 82 BB B9 BA B9 BB 
¡¡HI HI AE C7 88 55 0C 2C FF 0D 00 2E 50 27 8D 60 93 90 B0 84 BB B9 BA B9 BB 
¡¡HI HI AE C7 88 55 11 2C FF 0N 00 2E 37 75 95 60 92 90 B0 87 BA B8 BA B9 BB 
¡¡HI HI AE C7 88 55 06 2C FF 1E 00 2E  C 37 8C 60 92 90 B0 85 BA B8 BA B8 BB 
¡¡HI HI AE C7 88 55 1B 2C FF 0D 00 2E 3E 35 8E 60 93 91 B0 84 BA B8 B9 B8 BB 
¡¡HI HI AE C7 88 55 00 2C 1E 0D 
¡¡HI HI AE C7 88 55 05 2C FF 1A 00 2E 9D 2B 85 60 93 90 B0 6B BA B8 B9 B8 BB 
¡¡HI HI AE C7 88 55 0B 2C FF 0D 00 2E 2D 57 

¡¡AS17643C1   14Mar2000
¡¡10:54-11:06(JST)
                                  
¡¡HI HI AE C7 88 55 1C 2C FF 0D 00 3E 5F 3F 86 60 92 9F B0 87 BB BB BC BA BB  
¡¡HI HI AE C7 88 55 01  C FF 0D 00 3E 75 41 86 60 92 90 B0 OC BA BA BC BA BB 
¡¡HI HI AE AE 88 55 06 2C FF 0D 00 3E 6A 40 86 60 92 90 B0 95 BA BA BC B9 BB 
¡¡HI HI AE C7 88 55 0B 2C FF 0D 00 2E 73 40 8E 60 93 90 B0 88 BA BA BB B9 BB 
¡¡HI HI AE C7 88 55 10 2C FF 0D 00 2E 98 40 87 60 93 91 B0 76 BA BA BB B9 BB
¡¡HI HI AE C7 88 55 15 2C FF 0D 00 2E 74 37 88 60 92 8F B0 81 BA B9 BB B9 BB 
¡¡HI HI AE C7 88 55 1B 2C FF 0D 00 2E 7B 4F 8B 60 93 90 B0 6B BA B9 BB B9 BA 
¡¡HI HI AE C7 88 55 00 2C FF 0D 00 2E 59 47 8C 60 93 90 B0 9E BA B9 BB B9 BB 
¡¡HI HI AE C7 88 55 25 2C FF 0D 00 2E 7E 55 90 60 92 90 B0 6D B9 B8 BA B9 BA 
¡¡HI HI AE C7 88 55 19 2C FF 0D 00 2E 4F 5E 8D 60 92 90 B0 82 B9 B8 BA B9 BB 
¡¡HI HI AE C7 88 55 1E 2C FF 0D 00 2E 6C 21 83 60 92 90 B0 5E B9 B8 BA B9 BB 
¡¡HI HI AE C7 88 55 03 2C FF 0D 00 2E A3 7D 92 60 92 90 B0 8D B9 B7 BA B9 BA 
¡¡HI HI AE C7 88 55 08 2C FF 0D 00 2E 30 49 8C 60 92 90 B0 54 B9 B7 BA B9 BA 
¡¡HI HI AE C7 88 55 0E 2C FF 0D 00 2E 95 3D 8D 60 92 90 B0 79 B9 B7 B9 B9 BA 
¡¡
¡¡AS17631C1  13Mar2000
¡¡13:34-13:46(JST)

¡¡HI HI AE C7 88 55 0E 2C FF 0D 00 2E 70 57 86 60 93 91 B0 66 BB B8 BB BB B9 
¡¡HI HI AE C7 88 55 13 2C FF 0D 00 2E 6F 36 89 60 95 91 B0 97 BA B8 BB BB BA 
¡¡HI HI AE C7 88 55 02 2C FF 0D 00 2E 7B 3A 8B 60 93 91 B0 7D BA B7 BA BB BA 
¡¡HI HI AE C7 88 55 07 2C FF 0D 00 2E 7B 36 86 60 93 91 B0 8B BA B7 BA BB BA
¡¡HI HI AE C7 88 55 0C 2C FF 0D 00 2E 8A 46 84 60 92 90 B0 76 BA B6 B9 BB BA 
¡¡HI HI AE C7 88 55 00 2C FF 0D 00 2E 58 25 82 60 93 91 B0 7F BA B6 B9 BA BA 
¡¡HI HI AE C7 88 55 0E 2C FF 0D 00 2E 9D 42 8E 60 92 90 B0 81 BA B6 B9 BA BA 
¡¡HI HI AE C7 88 55 0B 2C FF 0D 00 2E 66 3A 88 60 96 92 B0 8F BA B6 B9 BA BA 
¡¡HI HI AE C7 88 55 10 2C FF 0D 00 2E 5D 31 8B 60 93 91 B0 6B B9 B6 B9 BA BA 
¡¡HI HI AE C7 88 55 15 2C FF 0D 00 2E AA 53 90 60 92 90 B0 6C B9 B5 B8 BA BA 
¡¡HI HI AE C7 88 55 IE 2C FF 1E 00 2E 77 37 82 60 92 90 B0 90 B6 B5 B8 BA BA 
¡¡HI HI AE C7 88 55 1F 2C FF 1E 00 2E 72 56   

-------------------------¡¡£Æ£Ï-£²£¹¤Îµ°Æ»Í×ÁÇ¡¡------------------------------        
 
¡¡¡¡¢£ µ°Æ»Í×ÁÇ£±¡§¡Öjamsat¡Ýkeps¡§£¹£·£´¡×¤è¤ê              
¡¡¡¡¡¡¡¡¡¡¡¡¡¡¡¡¡¡¡¡¡¡¡¡SB KEPS @ AMSAT  $ORB00070.N
¡¡¡¡¡¡¡¡¡¡¡¡¡¡¡¡¡¡¡¡¡¡¡¡2Line Orbital Elements 00070.AMSAT

¡¡HR AMSAT ORBITAL ELEMENTS FOR AMATEUR SATELLITES IN NASA FORMAT
¡¡FROM WA5QGD FORT WORTH,TX March 10, 2000
¡¡SEND SUBSCRIBE/UNSUBSCRIBE TO majordomo@amsat.org ONLY
¡¡BID: ORB00070.N

 ¡¡DECODE 2-LINE ELSETS WITH THE FOLLOWING KEY:
 ¡¡1 AAAAAU 00  0  0 BBBBB.BBBBBBBB  .CCCCCCCC  00000-0  00000-0 0  DDDZ
 ¡¡2 AAAAA EEE.EEEE FFF.FFFF GGGGGGG HHH.HHHH III.IIII JJ.JJJJJJJJKKKKKZ
 ¡¡KEY: A-CATALOGNUM B-EPOCHTIME C-DECAY D-ELSETNUM E-INCLINATION F-RAAN
 ¡¡G-ECCENTRICITY H-ARGPERIGEE I-MNANOM J-MNMOTION K-ORBITNUM Z-CHECKSUM

 ¡¡TO ALL RADIO AMATEURS BT

¡¡FO-29
¡¡1 24278U 96046B   00069.19393826  .00000021  00000-0  54614-4 0 03265
¡¡2 24278 098.5900 350.1696 0351873 125.6226 237.8231 13.52701788175772
¡¡¡¡
 ¢£ µ°Æ»Í×ÁÇ£²¡§¡Öjamsat¡Ýkeps¡§£¹£·£´¡×¤è¤ê                         
¡¡¡¡¡¡¡¡¡¡¡¡¡¡¡¡¡¡SB KEPS @ AMSAT  $ORB00070.O
¡¡¡¡¡¡¡¡¡¡¡¡¡¡¡¡¡¡Orbital Elements  00070.OSCAR

¡¡HR AMSAT ORBITAL ELEMENTS FOR OSCAR SATELLITES
¡¡FROM WA5QGD FORT WORTH,TX March 10, 2000
¡¡SEND SUBSCRIBE/UNSUBSCRIBE TO majordomo@amsat.org ONLY
¡¡BID: ORB00070.O
¡¡TO ALL RADIO AMATEURS BT

  Satellite: FO-29
¡¡Catalog number: 24278
¡¡Epoch time:      00069.19393826
¡¡Element set:    0326
¡¡Inclination:      098.5900 deg
¡¡RA of node:       350.1696 deg
¡¡Eccentricity:    0.0351873
¡¡Arg of perigee:   125.6226 deg
¡¡Mean anomaly:     237.8231 deg
¡¡Mean motion:   13.52701788 rev/day
¡¡Decay rate:        2.1e-07 rev/day^2
¡¡Epoch rev:           17577
¡¡Checksum:              322

-------------------¡¡¡¡FO-29¡ÊJAS-2)¤Î¥Æ¥ì¥á¥È¥ê¤Ë´Ø¤¹¤ë¾ðÊó¡¡¡¡----------------------
¡¡
¡¡£²¡Ë¾åµ­¤Î£³·î£±£¶Æü¡ÊÌڡˤΣ±£²¡§£³£±¡Ê£Ê£Ó£Ô¡Ë¤Î¥Ñ¥¹¤Î¥Ç¥£¥¸¥¿¥ë¡¦¥Æ¥ì¥á¥È¥ê¤Î
¡¡¡¡ºÇ¸å¤Î¹Ô¤ÎʬÀÏ·ë²Ì¤Ç¤¹.

¡¡¡¡AS17671C1   16Mar2000
¡¡¡¡12:32 - 12:48(JST)
¡¡¡¡Freq. 435.804-.787 MHz
 
¡¡¡¡HI HI AE C7 88 55 19 2C FF 0D 00 2E 48 1C 78 60 93 90 B1 97 BA B6 BA BA BB

¡¡¥Æ¥ì¥á¥È¥ê	Æâ   ÍÆ		´¹»»ÃÍ	ñ °Ì
¡¡
¡¡£³£Ã	¼§µ¤¥»¥ó¥µ¡¼£Ú¼´=	35294.1	[nT]
¡¡£³£Ä	¼§µ¤¥»¥ó¥µ£Ø¼´	=	13725.5	[nT]
¡¡£´£Á	ÂÀÍÛÅÅÃÓȯÀ¸ÅÅή=	 1176.5	[mA]
¡¡£´£Â	£Â½¼ÊüÅÅÅÅή	=	 -118.4	[mA]
¡¡£´£Ã	£Âü»ÒÅÅ°µ	=	   15.8	[V]
¡¡£´£Ä	£ÂÃæ´Öü»ÒÅÅ°µ	=	    6.9	[V]
¡¡£µ£Á	¥Ð¥¹ÅÅ°µ¡¡	=	   17.4	[V]
¡¡£µ£Â	£Ê£Ô£ÁÁ÷¿®ÅÅÎÏ	=	  883.4	[mW]
¡¡£µ£Ã 	¹½Âβ¹ÅÙ£±	=	    9.6	[¡î]
¡¡£µ£Ä	¹½Âβ¹ÅÙ£²	=	   11.2	[¡î]
¡¡£¶£Á	¹½Âβ¹ÅÙ£³	=	    9.6	[¡î]
¡¡£¶£Â	¹½Âβ¹ÅÙ£´	=	    9.6	[¡î]
¡¡£¶£Ã	£Â¥»¥ë²¹ÅÙ	=	    9.3	[¡î]
¡¡¡¡
 ¡¡¡¡* OS¤ÏWindows 2000,Office¡¡2000¡¡¤Ë¤Æ·×»»½èÍý.

--------------------------  £Æ£Ï¡Ý£²£¹,£Æ£Ï¡¾£²£°¤Î£Ñ£Ó£Ï¾ðÊó¡¡-------------------------
¡¡
¡¡£³¡Ë[jamsat-bb¡§5160]FO-20/FO-29¤ËJN1GKZ¤Î¿·°æ¡¡»á¤¬Åê¹Æ¤µ¤ì¤Æ¤¤¤Þ¤·¤¿¤Î¤Ç
¡¡¡¡¡¡Å¾ºÜ¤µ¤»¤Æ夭¤Þ¤·¤¿.
¡¡¡¡
¡¡¡¡3·î16Æü(ÌÚ¡Ë23¡§47¡¡JSTº¢¡¢Åìµþ¤«¤é¸«¤ë¤ÈFO-20¤ÈFO-29¤ÎÊý°Ì³Ñ¤¬Æ±¤¸¤Ë¤Ê¤ê¤Þ
¡¡¤¹¡£¶Ä³Ñ¤Ï°ã¤¤¤Þ¤¹¤¬¡¢Æ±»þ¤ËFO-20¤ÈFO-29¤Ë¥¢¥Ã¥×¥ê¥ó¥¯¤¹¤ë¤³¤È¤¬¤Ç¤­¤½¤¦¤Ç¤¹¡£

¡¡¡¡¥À¥¦¥ó¥ê¥ó¥¯¤¬¤É¤¦Ê¹¤³¤¨¤ë¤«¶½Ì£¤¢¤ë¤È¤³¤í¤Ç¤¹¡£

¡¡¡¡JN1GKZ ¿·°æ
   ¡¡jn1gkz@jamsat.or.jp     http://www.din.or.jp/~m-arai/
¡¡
 ==================================================================================

 ¡¡£´¡Ë£Ê£Á£Ò£Ì ¤Î¥Û¡¼¥à¥Ú¡¼¥¸¤Ë±¿ÍÑͽÄ꤬µ­ºÜ¤µ¤ì¤Æ¤¤¤Þ¤·¤¿¤Î¤Ç¤´¾Ò²ð¤·¤Þ¤¹¡¥
       ¡Ê http://www.jarl.or.jp/Japanese/3_Fuji/new/uy.htm ¡Ë

        ¢£ ¤Õ¤¸£³¹æ¡¿FO¡¼29/JAS-2 ¢£  
  ¡¡
¡¡¡¡¡¡¡¡¡¡¡ö¡ö¡ö¡¡±¿ÍÑͽÄê¤Ë¤Ä¤¤¤Æ¡¡¡ö¡ö¡ö
¡¡¡¡¡¡¡¡
¡¡ £°£³·î£±£±Æü¡¡¡Á¡¡£°£³·î£²£°Æü ¥¢¥Ê¥í¥°·Ï±¿ÍÑ 
   £°£³·î£²£±Æü¡¡¡Á¡¡£°£³·î£²£´Æü ¥Ç¥¸¥¿¥ë·Ï£±£²£°£°£â£ð£ó¥á¡¼¥ë¥Ü¥Ã¥¯¥¹±¿ÍÑ 
   £°£³·î£²£µÆü¡¡¡Á¡¡£°£´·î£°£²Æü ¥¢¥Ê¥í¥°·Ï±¿ÍÑ   

¡¡¡ö¤Ê¤ª¡¤±¿ÍÑͽÄê¤ÏÅÔ¹ç¤Ë¤è¤êÊѹ¹¤¹¤ë¤³¤È¤¬¤¢¤ê¤Þ¤¹¤Î¤Ç¤´Î»¾µ´ê¤¤¤Þ¤¹¡£

¡¡¾È²ñÀè¡¡¡§¡¡lab@jarl.or.jp

¡¡ºÇ¿·¤Î¾ðÊó¤Ï¥Æ¥ì¥Û¥ó¥µ¡¼¥Ó¥¹¡Ê£°£³¡Ý£³£¹£´£²¡Ý£±£°£°£°¡Ë¤ò¤ªÊ¹¤­¤¯¤À¤µ¤¤¡£¡¡¡¡
¡¡°Ê¸å¤Î±¿ÍѤˤĤ­¤Þ¤·¤Æ¤Ï£³·î²¼½Ü¤Ë¤ªÃΤ餻¤¤¤¿¤·¤Þ¤¹¡£

-----------------------    £Æ£Ï¡Ý£²£°¡ÊJAS-£±£â¡ËÆ»Í×ÁÇ   -------------------------
 ¡¡£µ¡Ë
 ¡¡¢£ µ°Æ»Í×ÁÇ£± ¡§½Ðŵ¤Ï£Æ£Ï-£²£¹¡Ö¤Õ¤¸£³¹æ¡×¤ËƱ¤¸¡¥
  
